Location: *
(51.0333°S, 178.4667°E)
Time: 04:53:25
(UTC+00:00)

Daily predictions for brighter satellites

Satellite Brightness Start Highest point End
(mag) Time Altitude Azimuth Time Altitude Azimuth Time Altitude Azimuth
STARLINK-71 3.8 08:05:26 10° WNW 08:09:41 85° SSW 08:13:56 10° ESE
STARLINK-29 3.3 08:06:13 10° WSW 08:09:52 86° SSE 08:13:30 10° ENE
Mayak 0.8 08:08:33 10° E 08:11:02 15° ESE 08:13:31 10° SSE
STARLINK-60 3.2 08:07:33 10° WSW 08:11:05 80° NNW 08:14:35 10° ENE
STARLINK-79 3.8 08:06:53 10° WNW 08:11:06 86° SSW 08:15:22 10° ESE
ATLAS CENTAUR R/B 3.5 08:05:08 10° WSW 08:12:05 41° S 08:15:13 10° ESE
STARLINK-78 3.8 08:08:31 10° WNW 08:12:45 85° SSW 08:17:00 10° ESE
STARLINK-49 3.8 08:11:54 10° WNW 08:16:08 84° SSW 08:20:23 10° ESE
STARLINK-27 3.8 08:13:31 10° WNW 08:17:45 83° SSW 08:22:00 10° ESE
STARLINK-74 3.8 08:15:12 10° WNW 08:19:26 82° SSW 08:23:42 10° ESE
YAOGAN 1 3.9 08:16:32 10° S 08:20:45 46° WSW 08:24:57 10° NW
STARLINK-39 3.8 08:16:53 10° WNW 08:21:07 81° SSW 08:25:23 10° ESE
STARLINK 3.8 08:18:31 10° WNW 08:22:45 80° SSW 08:27:01 10° ESE
STARLINK-42 3.8 08:19:21 10° W 08:23:35 79° SSW 08:27:50 10° ESE
CZ-2D R/B 4.3 08:20:10 10° S 08:24:01 53° WSW 08:27:51 10° NNW
STARLINK-21 3.8 08:20:07 10° WNW 08:24:21 79° SSW 08:28:36 10° ESE
Ariane Rocket 3.0 08:20:10 10° SSE 08:25:23 80° ENE 08:30:32 10° NNW
FALCON 9 DEB 3.2 08:22:05 10° WSW 08:25:43 78° NNW 08:29:18 10° ENE
Cosmos 1818 3.6 08:20:48 10° NW 08:26:12 83° NE 08:31:39 10° SE
Cosmos 1980 4.3 08:21:06 10° SW 08:26:43 56° WNW 08:32:16 10° N
MOS 1 Rocket 3.8 08:21:47 10° NNE 08:27:15 89° W 08:32:50 10° SSW
USA 186 1.5 08:24:48 10° SSE 08:27:34 50° E 08:30:06 10° N
STARLINK-45 3.9 08:23:47 10° W 08:28:01 76° S 08:32:16 10° ESE
Meteor 1-20 Rocket 4.3 08:22:45 10° N 08:28:18 62° E 08:33:50 10° SSE
SPOT 3 Rocket 4.2 08:24:07 10° SSE 08:29:00 38° E 08:33:52 10° NNE
STARLINK-76 3.9 08:26:52 10° W 08:31:06 77° SSW 08:35:21 10° ESE
CZ-4 R/B 3.9 08:28:50 10° S 08:32:27 28° WSW 08:36:04 10° WNW
STARLINK 3.9 08:28:31 10° W 08:32:45 76° SSW 08:37:00 10° ESE
H-2A R/B 2.5 08:28:27 10° SSE 08:33:32 45° E 08:38:41 10° N
STARLINK-32 3.9 08:30:13 10° W 08:34:26 75° SSW 08:38:41 10° ESE
STARLINK-40 3.9 08:31:52 10° W 08:36:06 75° S 08:40:21 10° ESE
Cosmos 1340 4.2 08:34:11 11° NE 08:36:53 21° E 08:39:51 10° SE
Molniya-1 4.2 08:35:27 10° SSW 08:37:27 28° SE 08:40:28 10° ENE
STARLINK-44 3.9 08:33:33 10° W 08:37:47 74° S 08:42:02 10° ESE
Cosmos 2333 Rocket 4.4 08:34:03 10° SW 08:38:11 21° W 08:42:19 10° NNW
EO 1 Del DPAF 3.3 08:34:40 10° NNE 08:38:29 71° ESE 08:42:20 10° S
STARLINK-36 3.9 08:35:14 10° W 08:39:27 74° S 08:43:42 10° ESE
CZ-2C R/B 3.9 08:34:02 10° SSE 08:39:30 39° E 08:44:58 10° NNE
Cosmos 2219 3.4 08:37:14 10° NNW 08:42:58 84° WSW 08:48:49 10° SSE
Okean 1-7 3.4 08:39:56 10° SSW 08:44:19 67° W 08:48:37 10° N
SJ-11-01 4.3 08:41:15 10° SSE 08:46:05 87° ENE 08:50:50 10° NNW
STARLINK-35 4.0 08:41:52 10° W 08:46:06 71° S 08:50:20 10° ESE
STARLINK-51 4.0 08:43:32 10° W 08:47:46 71° S 08:52:00 10° ESE
STARLINK-80 3.8 08:44:14 10° WSW 08:48:07 66° S 08:52:01 10° E
Cosmos 2221 Rocket 3.7 08:44:20 10° S 08:48:54 66° ESE 08:53:07 12° NNE
STARLINK-30 4.0 08:45:13 10° W 08:49:27 71° S 08:53:41 10° ESE
CZ-4C R/B 3.0 08:43:56 10° SW 08:49:55 46° SSE 08:54:58 10° ENE
Thor Agena Rocket 3.6 08:45:48 10° NNE 08:51:00 87° ESE 08:56:21 10° SSW
STARLINK-33 4.0 08:46:53 10° W 08:51:06 70° S 08:55:20 10° ESE
Resurs 01 Rocket 2.6 08:48:21 10° SSE 08:52:24 31° E 08:55:39 14° NNE
STARLINK-50 4.0 08:48:33 10° W 08:52:46 70° S 08:57:01 10° ESE
IRS-1A Rocket 4.4 08:47:46 10° SSE 08:53:25 79° WSW 08:58:58 10° NNW
Cosmos 1371 Rocket 4.4 08:49:03 10° N 08:53:59 44° ENE 08:59:02 10° SE
IRIDIUM 104 4.4 08:50:12 10° S 08:55:32 74° E 09:00:46 10° N
STARLINK-56 4.0 08:51:52 10° W 08:56:06 69° S 09:00:20 10° ESE
ATLAS CENTAUR R/B 4.3 08:53:38 10° WSW 08:56:07 16° SSW 08:58:40 10° SSE
Starlink (trailer) 4.0 08:53:39 10° W 08:57:53 69° S 09:02:07 10° ESE
STARLINK-38 4.0 08:55:11 10° W 08:59:24 68° S 09:03:38 10° ESE
STARLINK-65 4.0 08:56:53 10° W 09:01:07 68° S 09:05:21 10° ESE
Abrixas rocket 2.2 08:59:06 10° WNW 09:02:08 52° N 09:04:27 16° ENE
Cosmos 2227 Rocket 2.2 08:57:24 10° NNW 09:03:06 88° ENE 09:08:51 10° SSE
Cosmos 2297 Rocket 2.3 08:57:34 10° NNW 09:03:17 87° WSW 09:09:04 10° SSE
ARGOS 3.2 08:58:01 10° SSE 09:03:32 68° ENE 09:08:58 10° N
Cosmos 2266 Rocket 4.0 08:57:40 10° S 09:03:49 68° ESE 09:09:07 14° NNE
IRIDIUM 114 4.4 08:59:22 10° S 09:04:43 87° E 09:09:55 10° N
Lacrosse 5 2.6 08:59:53 10° WSW 09:04:59 54° SSE 09:10:03 10° E
Cosmos 1140 Rocket 3.6 09:00:39 10° SSW 09:06:00 76° ESE 09:10:09 17° NNE
STARLINK-69 4.0 09:01:55 10° W 09:06:08 67° S 09:10:22 10° E
STARLINK-26 4.0 09:02:29 10° W 09:06:37 66° S 09:10:47 10° E
STARLINK-48 3.8 09:02:56 10° WSW 09:06:55 68° S 09:10:54 10° E
STARLINK-66 4.0 09:03:34 10° W 09:07:47 67° S 09:12:01 10° E
STARLINK-41 4.0 09:05:13 10° W 09:09:26 67° S 09:13:39 10° E
STARLINK-64 4.0 09:06:54 10° W 09:11:07 66° S 09:15:20 10° E
USA 267 3.8 09:05:26 10° ESE 09:11:58 63° SSW 09:18:28 10° W
Cosmos 1515 3.7 09:08:26 10° S 09:12:24 73° E 09:15:08 19° NNE
STARLINK-70 4.0 09:08:33 10° W 09:12:46 66° S 09:17:00 10° E
IRIDIUM 103 4.5 09:08:32 10° S 09:13:52 80° W 09:19:03 10° N
STARLINK-68 4.0 09:10:18 10° W 09:14:31 66° S 09:18:44 10° E
Cosmos 1378 Rocket 4.4 09:10:29 10° S 09:14:44 38° ESE 09:17:29 19° NE
STARLINK-61 4.0 09:11:29 10° W 09:15:35 65° S 09:19:41 10° E
STARLINK-58 4.0 09:11:46 10° W 09:16:00 66° S 09:20:13 10° E
SL-16 R/B 2.5 09:10:43 10° SW 09:16:22 62° WNW 09:21:00 15° N
STARLINK-62 4.1 09:13:38 10° W 09:17:51 66° S 09:22:05 10° E
Cosmos 1602 4.1 09:14:37 10° NNW 09:18:33 68° WSW 09:22:34 10° S
Iridium 4 Rocket 4.4 09:15:24 10° SSE 09:19:15 28° ESE 09:21:40 18° ENE
Cosmos 1603 4.2 09:13:50 10° SSW 09:19:24 53° SE 09:23:34 17° NE
STARLINK-63 4.0 09:15:12 10° W 09:19:26 66° S 09:23:39 10° E
STARLINK 4.0 09:16:39 10° W 09:20:52 66° S 09:25:05 10° E
BREEZE-M DEB (TANK) 2.0 09:19:39 10° WNW 09:21:46 41° NNE 09:22:37 27° ENE
STARLINK-72 4.0 09:18:26 10° W 09:22:39 66° S 09:26:52 10° E
Cosmos 1943 3.9 09:19:25 10° SSW 09:24:58 46° SE 09:29:14 17° ENE
STARLINK-43 3.3 09:21:13 10° WSW 09:25:03 86° NNW 09:27:37 20° ENE
STARLINK-59 4.0 09:21:52 10° W 09:26:05 66° S 09:30:18 10° E
Cosmos 1500 3.6 09:25:15 23° NNE 09:27:14 45° E 09:30:55 10° SSE
STARLINK-57 4.0 09:23:34 10° W 09:27:47 66° S 09:32:00 10° E
Cosmos 2263 Rocket 3.5 09:25:54 18° NE 09:27:51 22° E 09:32:05 10° SE
Lacrosse 5 rocket 3.9 09:27:09 10° W 09:29:43 14° WNW 09:32:13 10° NNW
Cosmos 2082 3.7 09:24:57 10° NNW 09:30:41 89° WSW 09:36:31 10° SSE
STARLINK-53 4.0 09:26:52 10° W 09:31:06 66° S 09:35:19 10° E
STARLINK-28 4.0 09:26:53 10° W 09:31:06 66° S 09:35:19 10° E
SeaSat 1 3.6 09:26:49 10° SSE 09:31:36 47° SW 09:36:21 10° WNW
STARLINK-75 4.0 09:28:33 10° W 09:32:47 66° S 09:37:00 10° E
STARLINK-52 4.0 09:29:29 10° WSW 09:32:50 37° NNW 09:34:10 27° NNE
Cosmos 1536 3.6 09:31:11 24° NE 09:32:57 37° E 09:36:44 10° SSE
USA 81 4.1 09:28:12 10° S 09:33:36 82° W 09:37:48 17° N
STARLINK-54 4.0 09:30:14 10° W 09:34:27 66° S 09:38:40 10° E
SJ-6B 4.3 09:32:40 10° S 09:36:21 37° WSW 09:39:55 10° NW
Resurs 1-3 3.7 09:31:55 10° SSE 09:36:25 83° WSW 09:40:41 11° NNW
STARLINK-37 4.0 09:33:54 10° W 09:38:07 66° S 09:42:20 10° E
STARLINK-55 4.0 09:35:09 10° W 09:39:23 66° S 09:43:36 10° E
Cosmos 407 Rocket 4.3 09:34:23 10° SW 09:39:24 44° WNW 09:43:21 15° N
STARLINK-24 4.0 09:35:41 10° W 09:39:54 66° S 09:44:09 10° E
STARLINK-34 4.0 09:36:53 10° W 09:41:07 66° S 09:45:20 10° E
STARLINK-81 4.0 09:38:19 10° W 09:42:32 66° S 09:46:46 10° E
ATLAS 5 CENTAUR R/B 2.7 09:38:10 10° NNW 09:44:59 54° NE 09:51:14 10° SE
Cosmos 2237 Rocket 4.5 09:42:09 10° WSW 09:45:35 17° W 09:49:01 10° NW
STARLINK-77 4.0 09:41:40 10° W 09:45:53 66° S 09:50:06 10° E
Cosmos 1624 Rocket 4.0 09:40:35 10° NNW 09:45:54 86° WSW 09:51:14 10° SSE
Cosmos 2056 Rocket 3.6 09:40:35 10° NNW 09:46:00 89° WSW 09:51:32 10° SSE
Mayak -1.2 09:43:35 24° N 09:46:05 78° WNW 09:50:19 10° SSW
Cosmos 1346 Rocket 3.0 09:43:10 15° NNW 09:46:26 76° WSW 09:50:36 10° S
STARLINK-29 4.4 09:43:41 10° W 09:46:51 29° NW 09:47:42 26° N
STARLINK-25 4.0 09:43:24 10° W 09:47:37 66° S 09:51:51 10° E
STARLINK-71 4.0 09:45:16 10° W 09:49:30 67° S 09:53:43 10° E
ARGOS Delta rocket 4.4 09:45:01 10° SSE 09:49:31 39° E 09:51:23 27° NE
STARLINK-79 4.0 09:46:42 10° W 09:50:55 67° S 09:55:08 10° E
STARLINK-78 4.0 09:48:20 10° W 09:52:34 67° S 09:56:47 10° E
Meteor 1-23 Rocket 4.3 09:49:28 10° S 09:55:11 72° ESE 09:58:27 26° NNE
Landsat 4 4.0 09:53:31 27° N 09:55:30 62° WNW 09:59:23 10° SSW
STARLINK-49 4.0 09:51:43 10° WSW 09:55:57 67° S 10:00:10 10° E
Cosmos 1733 Rocket 3.3 09:52:38 16° NNW 09:56:06 72° W 10:00:39 10° S
Cosmos 1607 4.0 09:51:06 10° NW 09:57:31 83° NE 10:04:00 10° SE
STARLINK-27 4.0 09:53:20 10° WSW 09:57:34 68° S 10:01:48 10° E
Cosmos 1975 Rocket 3.9 09:54:26 10° S 09:58:48 41° ESE 10:00:46 27° NE
STARLINK-74 4.0 09:55:02 10° WSW 09:59:16 68° S 10:03:29 10° E
Meteor 2-4 Rocket 4.4 09:54:29 10° SSW 09:59:46 49° W 10:03:59 16° NNW
STARLINK-39 4.0 09:56:43 10° WSW 10:00:57 68° S 10:05:10 10° E
Cosmos 1244 Rocket 4.5 09:54:56 10° S 10:01:12 76° E 10:04:55 26° NNE
STARLINK 3.9 09:58:21 10° WSW 10:02:35 68° S 10:06:43 10° E
STARLINK-42 3.9 09:59:11 10° WSW 10:03:25 69° S 10:07:25 11° E
JB-3 4.3 10:01:51 32° N 10:03:33 76° W 10:07:29 10° SSW
STARLINK-21 3.9 09:59:57 10° WSW 10:04:10 69° S 10:08:14 11° E
Cosmos 1461 4.5 10:00:35 10° SSW 10:04:48 34° SE 10:08:12 14° E
STARLINK-45 3.9 10:03:37 10° WSW 10:07:51 71° S 10:11:34 13° E
DNEPR-1 R/B 3.5 10:07:32 28° N 10:09:28 52° NE 10:13:29 10° SE
Cosmos 1741 Rocket 4.1 10:05:01 10° SSW 10:10:26 80° ESE 10:13:12 30° NNE
STARLINK-76 3.9 10:06:42 10° WSW 10:10:57 70° S 10:14:42 13° E
Meteor 1-5 Rocket 4.3 10:07:44 15° NNW 10:12:13 71° WSW 10:17:37 10° S
Cosmos 1340 4.0 10:08:54 11° NW 10:12:17 38° WSW 10:15:57 10° S
STARLINK 3.9 10:08:21 10° WSW 10:12:35 71° S 10:16:16 13° E
H-2A R/B 3.7 10:08:08 10° S 10:12:50 34° WSW 10:17:38 10° NW
STARLINK-32 3.9 10:10:02 10° WSW 10:14:17 71° S 10:17:54 14° E
CARTOSAT-1 4.4 10:10:20 10° SSE 10:14:25 35° E 10:15:28 31° NE
Cosmos 1666 2.7 10:13:44 42° NNE 10:14:48 63° E 10:18:37 10° SSE
STARLINK-40 3.9 10:11:42 10° WSW 10:15:57 72° S 10:19:29 14° E
Cosmos 1674 Rocket 4.4 10:12:20 10° SSW 10:16:33 43° W 10:18:59 22° NNW
Cosmos 405 3.2 10:13:15 10° SSW 10:16:48 65° W 10:17:52 41° NNW
STARLINK-44 3.8 10:13:23 10° WSW 10:17:38 72° S 10:21:06 15° E
MetOp-B 4.1 10:12:56 10° SSE 10:18:25 89° ENE 10:21:57 23° NNW
STARLINK-36 3.8 10:15:03 10° WSW 10:19:18 73° S 10:22:42 15° E
CZ-2C R/B 4.4 10:13:54 10° S 10:19:24 44° WSW 10:24:55 10° NW
Terra 2.8 10:16:27 10° SSE 10:20:45 31° E 10:21:59 27° ENE
Meteor 1-11 Rocket 4.1 10:17:27 16° NNW 10:22:17 72° WSW 10:28:15 10° S
Cosmos 2084 3.6 10:19:11 10° NW 10:23:25 74° SW 10:27:46 10° SE
Okean 2 Rocket 4.3 10:22:40 25° ENE 10:23:47 28° E 10:27:43 10° SSE
SWARM A 4.4 10:23:56 52° NE 10:24:28 62° E 10:27:53 10° S
Cosmos 1378 4.3 10:21:13 10° S 10:24:46 33° ESE 10:25:45 29° ENE
Okean 2 3.9 10:20:49 10° S 10:24:54 49° ESE 10:26:12 35° NE
CZ-4B DEB 4.4 10:22:02 10° SSE 10:25:33 82° WSW 10:26:33 44° NNW
STARLINK-35 3.8 10:21:41 10° WSW 10:25:56 75° SSE 10:29:03 18° E
STARLINK-80 3.5 10:22:41 10° WSW 10:26:32 59° NNW 10:27:16 48° NNE
STARLINK-51 3.8 10:23:22 10° WSW 10:27:36 76° S 10:30:39 18° E
Aureole 3 Rocket 3.5 10:27:36 30° E 10:27:50 31° E 10:31:16 10° SSE
Helios 1B rocket 2.6 10:27:25 39° NE 10:28:49 64° ESE 10:32:59 10° S
Resurs 01 Rocket 3.0 10:24:44 10° S 10:28:56 37° WSW 10:33:05 10° NW
STARLINK-30 3.8 10:25:02 10° WSW 10:29:17 76° SSE 10:32:15 19° E
STARLINK-33 3.7 10:26:41 10° WSW 10:30:57 77° SSE 10:33:50 20° E
Cosmos 1745 Rocket 4.1 10:25:41 10° S 10:31:55 69° ESE 10:35:06 31° NNE
Cosmos 1420 Rocket 4.1 10:28:01 18° NNW 10:31:59 79° WSW 10:37:22 10° SSE
STARLINK-50 3.7 10:28:21 10° WSW 10:32:36 78° SSE 10:35:26 20° E
Spot 2 Rocket 3.8 10:28:51 10° S 10:33:57 68° WSW 10:37:25 21° NNW
Cosmos 1452 Rocket 3.5 10:31:37 23° NNW 10:35:00 89° WSW 10:40:22 10° SSE
STARLINK-56 3.7 10:31:40 10° WSW 10:35:56 79° SSE 10:38:37 22° E
Cosmos 724 4.3 10:33:26 25° NNW 10:36:53 62° ENE 10:42:52 10° SE
Starlink (trailer) 3.7 10:33:27 10° WSW 10:37:43 80° SSE 10:40:20 23° E
Abrixas rocket 3.9 10:34:51 10° W 10:36:15 21° WNW 10:36:15 21° WNW
CZ-4C R/B 2.5 10:32:54 10° SW 10:38:28 48° WNW 10:40:17 33° N
STARLINK-38 3.7 10:34:58 10° WSW 10:39:14 81° SSE 10:41:46 23° E
Meteor 1-29 3.5 10:38:52 42° ENE 10:39:26 47° ESE 10:42:49 10° S
STARLINK-65 3.7 10:36:41 10° WSW 10:40:56 82° SSE 10:43:25 24° E
Cosmos 1908 Rocket 4.0 10:42:18 27° NW 10:44:33 57° WSW 10:48:57 10° S
STARLINK-48 3.5 10:41:40 10° WSW 10:45:35 56° NNW 10:45:58 53° N
STARLINK-69 3.6 10:41:42 10° WSW 10:45:57 85° SSE 10:48:11 27° ENE
STARLINK-26 3.5 10:42:01 10° WSW 10:46:12 88° SSE 10:48:05 32° ENE
Cosmos 1850 Rocket 4.4 10:41:26 10° SSW 10:46:36 54° WNW 10:48:41 33° NNW
STARLINK-66 3.6 10:43:21 10° WSW 10:47:36 85° SSE 10:49:48 28° ENE
Cosmos 2227 Rocket 4.5 10:43:19 10° W 10:47:56 24° SW 10:52:34 10° SSE
Lacrosse 5 2.0 10:43:00 10° WSW 10:48:06 60° NW 10:49:48 39° NNE
STARLINK-41 3.6 10:44:58 10° WSW 10:49:14 86° SSE 10:51:22 29° ENE
STARLINK-64 3.6 10:46:41 10° WSW 10:50:55 87° S 10:52:55 30° ENE
Cosmos 1536 Rocket 4.3 10:46:58 10° S 10:51:12 43° ESE 10:52:33 33° ENE
CZ-4 R/B 4.0 10:50:31 38° NNE 10:52:32 78° ESE 10:57:39 10° SSW
STARLINK-70 3.6 10:48:19 10° WSW 10:52:34 88° SSE 10:54:33 31° ENE
S3M 3.9 10:50:11 33° N 10:53:11 76° E 10:59:24 10° SSE
STARLINK-68 3.6 10:50:03 10° WSW 10:54:18 90° NW 10:56:09 33° ENE
USA 267 4.0 10:48:06 10° E 10:54:32 55° S 11:00:57 10° WSW
STARLINK-61 3.4 10:50:47 10° WSW 10:54:55 76° NNW 10:55:55 49° NE
STARLINK-58 3.6 10:51:32 10° WSW 10:55:47 90° NNW 10:57:37 33° ENE
ATLAS CENTAUR R/B 2.8 10:53:48 10° WSW 10:55:48 23° W 10:55:48 23° W
FALCON 9 R/B 4.3 10:51:51 10° WNW 10:56:37 15° NW 10:56:37 15° NW
STARLINK-62 3.5 10:53:23 10° WSW 10:57:38 88° NNW 10:59:20 36° ENE
SAR-Lupe-3 4.5 10:57:12 63° NNE 10:57:45 85° ESE 11:01:27 10° SSW
STARLINK-63 3.5 10:54:58 10° WSW 10:59:13 88° N 11:00:55 35° ENE
Iridium 4 Rocket 4.3 10:55:14 10° SSW 10:59:18 36° W 11:01:28 23° NW
Timation 1 Rocket 4.3 10:56:48 30° NNW 10:59:54 73° ENE 11:05:59 10° SE
Cosmos 1743 2.7 10:59:16 55° NNW 11:00:07 89° W 11:04:08 10° S
STARLINK 3.6 10:56:24 10° WSW 11:00:40 90° W 11:02:28 34° ENE
STARLINK-72 3.5 10:58:10 10° WSW 11:02:26 87° NNW 11:04:05 37° ENE
Cosmos 405 Rocket 4.5 11:02:39 19° E 11:02:48 20° E 11:05:36 10° SE
SL-19 R/B 4.3 11:00:40 34° NE 11:02:56 65° ESE 11:08:12 10° SSW
STARLINK-59 3.5 11:01:36 10° WSW 11:05:52 84° NNW 11:07:17 41° ENE
IGS 5A 4.2 11:03:25 10° S 11:07:31 49° WSW 11:09:21 28° NW
STARLINK-57 3.5 11:03:18 10° WSW 11:07:33 83° NNW 11:08:55 42° ENE
ERS-1 Rocket 3.2 11:03:06 10° S 11:08:13 70° WSW 11:10:42 31° NNW
Meteor 1-21 4.2 11:02:45 10° S 11:08:27 76° ESE 11:10:47 37° NNE
Cosmos 1943 4.0 11:03:41 10° SW 11:08:58 38° WNW 11:11:03 29° NNW
BREEZE-M DEB (TANK) 3.8 11:06:13 15° WNW 11:09:12 67° NNE 11:21:22 10° E
Cosmos 2084 Rocket 3.6 11:05:45 10° SW 11:10:05 73° SE 11:11:38 39° ENE
STARLINK-28 3.5 11:06:37 10° WSW 11:10:52 80° NNW 11:12:04 45° ENE
STARLINK-53 3.5 11:06:37 10° WSW 11:10:52 80° NNW 11:12:06 45° ENE
Cosmos 2263 Rocket 2.3 11:07:33 23° NW 11:11:10 76° WSW 11:16:57 10° SSE
STARLINK-75 3.5 11:08:16 10° WSW 11:12:30 75° NNW 11:13:28 51° NE
STARLINK-54 3.5 11:09:57 10° WSW 11:14:11 78° NNW 11:15:16 49° NE
SPOT 5 3.3 11:12:20 10° S 11:17:41 71° WSW 11:20:20 31° NNW
STARLINK-37 3.5 11:13:38 10° WSW 11:17:52 74° NNW 11:18:46 53° NE
Sich 1 Rocket 4.0 11:16:31 36° NW 11:18:07 58° WSW 11:22:34 10° S
STARLINK-55 3.5 11:14:52 10° WSW 11:19:06 75° NNW 11:20:02 52° NE
STARLINK-24 3.5 11:15:26 10° WSW 11:19:40 74° NNW 11:20:33 53° NE
SPOT 1/Viking Rocket 4.1 11:14:55 10° S 11:20:00 53° WSW 11:22:56 24° NW
Cosmos 1842 3.2 11:16:30 10° SSW 11:20:35 82° W 11:21:14 61° N
Cosmos 1437 Rocket 4.3 11:17:26 10° S 11:20:46 26° ESE 11:21:56 22° E
STARLINK-34 3.5 11:16:36 10° WSW 11:20:50 73° NNW 11:21:39 54° NE
Cosmos 968 Rocket 4.4 11:16:39 10° SSW 11:21:37 41° ESE 11:24:38 21° ENE
Cosmos 1553 Rocket 4.5 11:17:55 24° NNW 11:21:51 58° WSW 11:28:18 10° S
STARLINK-81 3.5 11:18:02 10° WSW 11:22:16 75° NNW 11:23:11 52° NE
PSLV R/B 3.8 11:22:03 44° NE 11:23:27 70° ESE 11:28:09 10° S
Cosmos 332 Rocket 3.8 11:23:16 47° NNE 11:24:28 64° ENE 11:29:18 10° SSE
Cosmos 1302 Rocket 4.4 11:24:16 39° NNE 11:25:35 47° ENE 11:30:39 10° SSE
STARLINK-77 3.5 11:21:22 10° WSW 11:25:35 73° NNW 11:26:23 56° NE
STARLINK-25 3.5 11:23:06 10° WSW 11:27:20 72° NNW 11:28:03 57° NE
Cosmos 389 Rocket 2.3 11:23:54 10° SSW 11:27:26 81° W 11:27:33 79° NW
Resurs 1-4 Rocket 3.8 11:23:56 12° ENE 11:27:48 26° ESE 11:32:08 10° S
Cosmos 2151 Rocket 3.6 11:26:50 52° NNE 11:27:51 74° E 11:32:20 10° SSE
STARLINK-71 3.5 11:24:58 10° WSW 11:29:10 67° NNW 11:29:39 60° NNE
ATLAS 5 CENTAUR R/B 3.3 11:23:13 10° WNW 11:29:57 52° SW 11:35:59 10° SE
STARLINK-79 3.5 11:26:23 10° WSW 11:30:37 69° NNW 11:31:12 59° NNE
Meteor 2-9 Rocket 4.3 11:29:16 39° N 11:31:35 79° E 11:37:23 10° SSE
STARLINK-78 3.5 11:28:02 10° WSW 11:32:15 68° NNW 11:32:45 60° NNE
STARLINK-49 3.6 11:31:24 10° WSW 11:35:37 66° NNW 11:35:59 62° N
Cosmos 1544 3.1 11:36:28 64° ENE 11:36:40 65° E 11:40:23 10° SSE
STARLINK-27 3.6 11:33:02 10° WSW 11:37:14 64° NNW 11:37:33 62° N
Cosmos 1300 Rocket 3.5 11:36:56 53° NNW 11:37:57 84° WSW 11:42:24 10° S
STARLINK-74 3.6 11:34:43 10° WSW 11:38:55 63° NNW 11:39:11 62° N
STARLINK-39 3.6 11:36:24 10° WSW 11:40:35 62° NNW 11:40:47 61° NNW
STARLINK 3.6 11:38:02 10° WSW 11:42:13 61° NNW 11:42:20 60° NNW
Cosmos 1975 3.5 11:41:20 38° WNW 11:42:22 48° WSW 11:46:23 10° S
STARLINK-42 3.6 11:38:52 10° WSW 11:43:02 58° NNW 11:43:02 58° NNW
STARLINK-21 3.6 11:39:38 10° WSW 11:43:49 59° NNW 11:43:51 59° NNW
Cosmos 1461 3.2 11:39:43 10° SW 11:44:09 52° WNW 11:44:34 50° NW
SWAS 4.4 11:44:04 57° N 11:44:51 76° ENE 11:49:13 10° SE
Cosmos 1709 Rocket 4.1 11:40:30 10° SSW 11:46:46 66° W 11:49:27 35° NNW
STARLINK-45 3.8 11:43:18 10° WSW 11:47:11 52° NW 11:47:11 52° NW
Cosmos 1486 Rocket 3.9 11:42:37 10° SSW 11:47:56 85° WNW 11:49:45 42° NNE
Cosmos 1441 Rocket 4.2 11:47:36 33° WNW 11:48:34 39° WSW 11:52:12 10° S
STARLINK-76 3.8 11:46:23 10° WSW 11:50:19 54° NW 11:50:19 54° NW
Cosmos 2278 Rocket 4.0 11:48:58 15° ENE 11:50:41 17° E 11:54:07 10° ESE
STARLINK 3.8 11:48:02 10° WSW 11:51:53 52° NW 11:51:53 52° NW
Meteor 1-4 Rocket 2.5 11:48:46 10° SSW 11:52:22 65° W 11:52:26 64° WNW
STARLINK-32 3.9 11:49:43 10° WSW 11:53:31 51° NW 11:53:31 51° NW
Cosmos 1025 Rocket 3.4 11:50:28 10° SSW 11:54:43 51° W 11:55:32 44° NW
ALOS 2 3.7 11:51:27 10° SSE 11:55:29 32° E 11:56:28 29° ENE
STARLINK-40 3.9 11:51:23 10° WSW 11:55:06 49° NW 11:55:06 49° NW
